EW6534 Weather Reports


time (UTC)temp
F
wind
direction
speed
knots
gust
knots
rain 1hr
in
rain 24hr
in
rain mn
in
humidity
%
barometer
mb
20260503054529 36 220 1.7 3.5 0.00 0.00 0.00 87 1018.0
20260503053028 36 220 2.6 3.5 0.00 0.00 0.00 87 1018.1
20260503051528 36 220 2.6 3.5 0.00 0.00 0.00 87 1018.2
20260503050026 36 220 2.6 3.5 0.00 0.00 0.00 87 1018.3
20260503044528 36 220 2.6 3.5 0.00 0.00 0.00 87 1018.2
20260503043022 36 220 2.6 3.5 0.00 0.00 0.00 87 1018.1
20260503041521 36 220 1.7 2.6 0.00 0.00 0.00 87 1018.1
20260503040022 36 220 0.9 1.7 0.00 0.00 0.00 86 1018.2
20260503034518 36 220 0.9 2.6 0.00 0.00 0.00 85 1018.2
20260503033015 35 302 0.0 1.7 0.00 0.00 0.00 81 1018.2
20260503031514 38 302 0.0 0.9 0.00 0.00 0.00 76 1018.2
20260503030013 38 302 0.9 2.6 0.00 0.00 0.00 76 1018.2
20260503024513 39 302 0.0 0.9 0.00 0.00 0.00 76 1018.2
20260503023033 38 302 1.7 3.5 0.00 0.00 0.00 78 1018.3
20260503021511 38 302 0.0 2.6 0.00 0.00 0.00 78 1018.1
20260503020008 38 302 0.9 1.7 0.00 0.00 0.00 79 1018.0
20260503014508 38 302 0.9 1.7 0.00 0.00 0.00 77 1017.8
20260503013008 40 302 0.9 2.6 0.00 0.00 0.00 72 1017.7
20260503011508 42 302 2.6 7.0 0.00 0.00 0.00 68 1017.5
20260503010006 42 304 3.5 5.2 0.00 0.00 0.00 68 1017.4
20260503004507 43 314 5.2 7.8 0.00 0.00 0.00 64 1017.3
20260503003005 44 296 5.2 8.7 0.00 0.00 0.00 62 1017.2
20260503001505 44 302 5.2 10.4 0.00 0.00 0.00 60 1017.1
20260503000005 45 303 8.7 11.3 0.00 0.00 0.00 57 1017.0
20260502234502 46 303 7.0 11.3 0.00 0.00 0.00 56 1016.9
20260502233002 47 330 5.2 11.3 0.00 0.00 0.00 56 1016.8
20260502231502 47 318 9.6 13.9 0.00 0.00 0.00 54 1016.7
20260502230120 48 301 8.7 12.2 0.00 0.00 0.00 53 1016.7
20260502224559 47 306 7.0 14.8 0.00 0.00 0.00 54 1016.7
20260502223059 47 293 10.4 13.9 0.00 0.00 0.00 53 1016.6
20260502221557 48 312 10.4 13.9 0.00 0.00 0.00 51 1016.6
20260502220057 48 282 9.6 12.2 0.00 0.00 0.00 51 1016.5
20260502214557 48 292 10.4 14.8 0.00 0.00 0.00 50 1016.3
20260502213055 49 277 7.8 14.8 0.00 0.00 0.00 52 1016.3
20260502211556 48 315 10.4 16.5 0.00 0.00 0.00 51 1016.3
20260502210054 49 291 10.4 15.6 0.00 0.00 0.00 52 1016.1
20260502204556 48 275 10.4 13.9 0.00 0.00 0.00 52 1016.2
20260502203052 48 339 8.7 13.9 0.00 0.00 0.00 51 1016.2
20260502201549 49 324 8.7 16.5 0.00 0.00 0.00 50 1016.3
20260502200052 49 317 5.2 14.8 0.00 0.00 0.00 49 1016.5
20260502194648 50 5 8.7 13.0 0.00 0.00 0.00 50 1016.5
20260502193048 50 285 12.2 20.0 0.00 0.00 0.00 57 1016.5
20260502191557 49 316 7.8 20.0 0.00 0.00 0.00 49 1016.6
20260502190045 50 304 10.4 16.5 0.00 0.00 0.00 50 1016.7
20260502184542 48 319 9.6 16.5 0.00 0.00 0.00 55 1016.8
20260502183042 48 298 7.8 14.8 0.00 0.00 0.00 52 1016.9
20260502181548 48 290 9.6 14.8 0.00 0.00 0.00 54 1017.0
20260502163029 47 297 7.0 16.5 0.00 0.00 0.00 56 1017.5
20260502161526 47 303 10.4 15.6 0.00 0.00 0.00 58 1017.6
20260502151513 46 277 7.8 14.8 0.00 0.01 0.00 59 1017.8
20260502123038 40 277 7.8 10.4 0.00 0.01 0.00 76 1017.3
20260502121524 39 277 7.0 9.6 0.00 0.01 0.00 79 1017.1
20260502114517 38 270 6.1 8.7 0.00 0.01 0.00 84 1016.9
20260502113014 38 282 5.2 7.0 0.00 0.01 0.00 85 1016.7
20260502111509 37 279 4.3 7.0 0.00 0.01 0.00 85 1016.7
20260502110006 38 273 3.5 6.1 0.00 0.01 0.00 83 1016.8
20260502104511 38 273 2.6 6.1 0.00 0.01 0.00 82 1016.7
20260502103003 38 273 0.9 3.5 0.00 0.01 0.00 84 1016.6
20260502101501 38 273 0.9 3.5 0.00 0.01 0.00 84 1016.6
20260502080104 37 273 0.9 2.6 0.00 0.01 0.00 85 1016.4
20260502070050 36 273 1.7 2.6 0.00 0.01 0.00 88 1016.4
20260502064548 37 273 2.6 3.5 0.00 0.01 0.00 88 1016.6